Change the Weather History Date:

Monday, May 6, 2013

  Actual Average Record
Temperature  
Mean Temperature 52 °F -  
Max Temperature 68 °F 67 °F 90 °F (1949)
Min Temperature 37 °F 45 °F 28 °F (1954)
Degree Days  
Heating Degree Days 12    
Growing Degree Days 2 (Base 50)    
Moisture  
Dew Point 44 °F    
Average Humidity 80    
Maximum Humidity 93    
Minimum Humidity 52    
Precipitation  
Precipitation 0.00 in - - ()
Sea Level Pressure  
Sea Level Pressure 30.22 in    
Wind  
Wind Speed 1 mph (SSE)    
Max Wind Speed 12 mph    
Max Gust Speed 17 mph    
Visibility 8 miles    
Events      
Averages and records for this station are not official NWS values.
T = Trace of Precipitation, MM = Missing Value Source: NWS Daily Summary

Daily Weather History Graph

Daily Weather History Graph

Search for Another Location

Airport or City:

Trip Planner

Search our weather history database for the weather conditions in past years. The results will help you decide how hot, cold, wet, or windy it might be!

Date:

Astronomy

May. 06, 2013 Rise Set
Actual Time 5:49 AM EDT 7:59 PM EDT
Civil Twilight 5:19 AM EDT 8:29 PM EDT
Nautical Twilight 4:42 AM EDT 9:07 PM EDT
Astronomical Twilight 4:01 AM EDT 9:47 PM EDT
Moon 3:51 AM EDT (5/6) 4:55 PM EDT (5/6)
Length of Visible Light 15h 10m
Length of Day
14h 09m
Waning Crescent, 11% of the Moon is Illuminated
May 6
Waning Crescent
May 9
New
May 18
First Quarter
May 25
Full
May 31
Last Quarter

Hourly Weather History & Observations

Time (EDT) Temp. Windchill Dew Point Humidity Pressure Visibility Wind Dir Wind Speed Gust Speed Precip Events Conditions
12:15 AM 41.0 °F - 39.2 °F 93% 30.25 in 5.0 mi Calm Calm - N/A   Clear
12:35 AM 41.0 °F - 37.4 °F 87% 30.24 in 3.0 mi Calm Calm - N/A   Clear
12:55 AM 39.2 °F - 37.4 °F 93% 30.24 in 10.0 mi Calm Calm - N/A   Clear
1:15 AM 39.2 °F - 35.6 °F 87% 30.24 in 1.0 mi Calm Calm - N/A   Mist
1:35 AM 39.2 °F - 35.6 °F 87% 30.23 in 1.8 mi Calm Calm - N/A   Mist
1:55 AM 37.4 °F - 35.6 °F 93% 30.23 in 0.8 mi Calm Calm - N/A   Mostly Cloudy
2:15 AM 37.4 °F - 35.6 °F 93% 30.23 in 1.5 mi Calm Calm - N/A   Scattered Clouds
2:35 AM 39.2 °F - 37.4 °F 93% 30.22 in 0.8 mi Calm Calm - N/A   Overcast
2:55 AM 39.2 °F - 37.4 °F 93% 30.22 in 10.0 mi Calm Calm - N/A   Overcast
3:15 AM 41.0 °F - 39.2 °F 93% 30.23 in 10.0 mi Calm Calm - N/A   Overcast
3:35 AM 42.8 °F - 39.2 °F 87% 30.23 in 10.0 mi Calm Calm - N/A   Overcast
3:55 AM 42.8 °F - 41.0 °F 93% 30.23 in 10.0 mi Calm Calm - N/A   Overcast
4:15 AM 44.6 °F - 41.0 °F 87% 30.23 in 10.0 mi Calm Calm - N/A   Overcast
4:35 AM 44.6 °F - 41.0 °F 87% 30.22 in 10.0 mi Calm Calm - N/A   Overcast
4:55 AM 46.4 °F - 42.8 °F 87% 30.23 in 10.0 mi Calm Calm - N/A   Overcast
5:15 AM 46.4 °F - 42.8 °F 87% 30.23 in 10.0 mi Calm Calm - N/A   Overcast
5:35 AM 48.2 °F - 42.8 °F 82% 30.23 in 10.0 mi Calm Calm - N/A   Overcast
5:55 AM 48.2 °F - 42.8 °F 82% 30.23 in 10.0 mi Calm Calm - N/A   Overcast
6:15 AM 48.2 °F - 42.8 °F 82% 30.24 in 10.0 mi NNE 3.5 mph - N/A   Overcast
6:35 AM 48.2 °F - 44.6 °F 87% 30.24 in 10.0 mi Calm Calm - N/A   Overcast
6:45 AM 46.4 °F 45.2 °F 42.8 °F 87% 30.24 in 10.0 mi NNE 3.5 mph - N/A   Overcast
7:45 AM 48.2 °F - 44.6 °F 87% 30.26 in 6.0 mi NE 4.6 mph - N/A   Overcast
8:45 AM 51.8 °F - 44.6 °F 76% 30.27 in 6.0 mi Calm Calm - N/A   Overcast
9:45 AM 55.4 °F - 46.4 °F 72% 30.27 in 6.0 mi Calm Calm - N/A   Overcast
10:45 AM 57.2 °F - 46.4 °F 67% 30.27 in 6.0 mi Calm Calm - N/A   Overcast
11:45 AM 59.0 °F - 48.2 °F 67% 30.26 in 6.0 mi SE 5.8 mph - N/A   Overcast
12:45 PM 62.6 °F - 50.0 °F 63% 30.22 in 10.0 mi ESE 6.9 mph - N/A   Partly Cloudy
1:45 PM 64.4 °F - 50.0 °F 59% 30.21 in 10.0 mi SSW 8.1 mph - N/A   Partly Cloudy
2:45 PM 68.0 °F - 50.0 °F 52% 30.19 in 10.0 mi SSE 5.8 mph 17.3 mph N/A   Partly Cloudy
3:45 PM 68.0 °F - 51.8 °F 56% 30.17 in 10.0 mi SSE 8.1 mph - N/A   Partly Cloudy
4:45 PM 66.2 °F - 51.8 °F 60% 30.16 in 10.0 mi South 10.4 mph 17.3 mph N/A   Partly Cloudy
5:45 PM 64.4 °F - 51.8 °F 64% 30.16 in 10.0 mi SSE 11.5 mph 17.3 mph N/A   Scattered Clouds
6:45 PM 62.6 °F - 50.0 °F 63% 30.16 in 10.0 mi South 6.9 mph - N/A   Clear
7:45 PM 59.0 °F - 50.0 °F 72% 30.17 in 10.0 mi South 6.9 mph - N/A   Clear
8:45 PM 57.2 °F - 50.0 °F 77% 30.18 in 10.0 mi South 3.5 mph - N/A   Clear
9:45 PM 55.4 °F - 48.2 °F 77% 30.19 in 10.0 mi South 3.5 mph - N/A   Clear
10:55 PM 51.8 °F - 48.2 °F 88% 30.18 in 10.0 mi Calm Calm - N/A   Clear
11:15 PM 50.0 °F - 44.6 °F 82% 30.18 in 3.0 mi Calm Calm - N/A   Clear
11:35 PM 50.0 °F - 46.4 °F 87% 30.17 in 1.0 mi Calm Calm - N/A   Mist
11:55 PM 50.0 °F - 46.4 °F 87% 30.17 in 1.0 mi Calm Calm - N/A   Mist